Location: Rochester
(43.1610°N, 77.6109°W)
Time: 09:34:56
(UTC-05:00)

CAS-4A - Pass Details

Date: 24 October 2021
Orbit: 529 x 539 km, 43.0° (Epoch: 04 December)

Event Time Altitude Azimuth Distance (km) Brightness Sun altitude
Rises 19:12:07 0° 281° (W) 2,689 ? -11.4°
Reaches altitude 10° 19:14:24 10° 276° (W) 1,796 ? -11.8°
Maximum altitude 19:18:25 54° 200° (SSW) 659 ? -12.6°
Enters shadow 19:21:45 14° 125° (SE) 1,538 ? -13.2°
